• Em Portugal
  • Lista de países
  • Para 7 dias
  • Temperatura da água
  • Mapas de satélite
  • Mapa do tempo
  • Widgets de tempo
  • user-avatar
    Iniciar Sessão

    Previsão horária em Manaus

    Hoje, 23 Novembro, Quinta-feira

    Tempo Temperatura Precipitação Vento Pressão Humidade
    00:00 +25°C° 0 mm 0 m/s 753 mmHg 72%
    01:00 +25°C° 0 mm 0 m/s 753 mmHg 73%
    02:00 +25°C° 0 mm 0 m/s 753 mmHg 71%
    03:00 +25°C° 0 mm 0 m/s 753 mmHg 71%
    04:00 +25°C° 0 mm 0 m/s 753 mmHg 71%
    05:00 +25°C° 0 mm 0 m/s 752 mmHg 72%
    06:00 +27°C° 0 mm 0 m/s 753 mmHg 65%
    07:00 +29°C° 0 mm 0 m/s 753 mmHg 59%
    08:00 +30°C° 0 mm 0 m/s 754 mmHg 53%
    09:00 +35°C° 0 mm 1 m/s 754 mmHg 45%
    10:00 +37°C° 0 mm 1 m/s 753 mmHg 38%
    11:00 +40°C° 0 mm 1 m/s 753 mmHg 30%
    12:00 +40°C° 0 mm 1 m/s 752 mmHg 30%
    13:00 +40°C° 0 mm 1 m/s 751 mmHg 30%
    14:00 +40°C° 0 mm 1 m/s 750 mmHg 29%
    15:00 +39°C° 0 mm 1 m/s 750 mmHg 32%
    16:00 +37°C° 0 mm 1 m/s 750 mmHg 35%
    17:00 +36°C° 0 mm 1 m/s 749 mmHg 38%
    18:00 +35°C° 0 mm 1 m/s 750 mmHg 42%
    19:00 +33°C° 0 mm 1 m/s 750 mmHg 45%
    20:00 +31°C° 0 mm 1 m/s 751 mmHg 49%
    21:00 +31°C° 0 mm 1 m/s 751 mmHg 51%
    22:00 +28°C° 0 mm 0 m/s 752 mmHg 52%
    23:00 +28°C° 0 mm 0 m/s 752 mmHg 54%

    Amanhã, 24 Novembro, Sexta-feira

    Tempo Temperatura Precipitação Vento Pressão Humidade
    00:00 +28°C° 0 mm 0 m/s 752 mmHg 55%
    01:00 +27°C° 0 mm 0 m/s 751 mmHg 56%
    02:00 +27°C° 0 mm 0 m/s 751 mmHg 57%
    03:00 +29°C° 0 mm 1 m/s 751 mmHg 59%
    04:00 +29°C° 0 mm 1 m/s 751 mmHg 60%
    05:00 +28°C° 0 mm 1 m/s 751 mmHg 62%
    06:00 +29°C° 0 mm 1 m/s 752 mmHg 61%
    07:00 +30°C° 0 mm 1 m/s 753 mmHg 59%
    08:00 +31°C° 0 mm 1 m/s 754 mmHg 58%
    09:00 +33°C° 0 mm 1 m/s 754 mmHg 52%
    10:00 +35°C° 0 mm 1 m/s 754 mmHg 45%
    11:00 +39°C° 0 mm 1 m/s 754 mmHg 39%
    12:00 +39°C° 0 mm 1 m/s 753 mmHg 39%
    13:00 +37°C° 0 mm 1 m/s 752 mmHg 40%
    14:00 +37°C° 0 mm 1 m/s 751 mmHg 40%
    15:00 +36°C° 0 mm 1 m/s 751 mmHg 43%
    16:00 +36°C° 0 mm 1 m/s 750 mmHg 47%
    17:00 +33°C° 0 mm 0 m/s 750 mmHg 50%
    18:00 +33°C° 0,2 mm 1 m/s 751 mmHg 55%
    19:00 +32°C° 0,2 mm 1 m/s 751 mmHg 61%
    20:00 +30°C° 0,2 mm 1 m/s 752 mmHg 67%
    21:00 +29°C° 0,3 mm 1 m/s 752 mmHg 72%
    22:00 +29°C° 0,3 mm 1 m/s 752 mmHg 78%
    23:00 +28°C° 0,3 mm 1 m/s 753 mmHg 84%

    Depois de amanhã, 25 Novembro, Sábado

    Tempo Temperatura Precipitação Vento Pressão Humidade
    00:00 +27°C° 0,1 mm 1 m/s 752 mmHg 85%
    01:00 +27°C° 0,1 mm 1 m/s 752 mmHg 86%
    02:00 +27°C° 0,1 mm 1 m/s 751 mmHg 87%
    03:00 +27°C° 0,2 mm 1 m/s 752 mmHg 87%
    04:00 +27°C° 0,2 mm 1 m/s 752 mmHg 88%
    05:00 +27°C° 0,2 mm 1 m/s 752 mmHg 89%
    06:00 +27°C° 1,4 mm 1 m/s 753 mmHg 87%
    07:00 +28°C° 1,4 mm 1 m/s 754 mmHg 85%
    08:00 +29°C° 1,4 mm 1 m/s 755 mmHg 83%
    09:00 +30°C° 1,9 mm 1 m/s 755 mmHg 80%
    10:00 +31°C° 1,9 mm 2 m/s 755 mmHg 78%
    11:00 +32°C° 1,9 mm 2 m/s 755 mmHg 75%
    12:00 +32°C° 0,4 mm 1 m/s 754 mmHg 70%
    13:00 +33°C° 0,4 mm 1 m/s 753 mmHg 66%
    14:00 +33°C° 0,4 mm 1 m/s 752 mmHg 61%
    15:00 +33°C° 0,1 mm 1 m/s 751 mmHg 62%
    16:00 +31°C° 0,1 mm 0 m/s 751 mmHg 64%
    17:00 +30°C° 0,1 mm 0 m/s 751 mmHg 65%
    18:00 +29°C° 0,2 mm 0 m/s 752 mmHg 70%
    19:00 +30°C° 0,2 mm 1 m/s 752 mmHg 74%
    20:00 +29°C° 0,2 mm 1 m/s 753 mmHg 79%
    21:00 +28°C° 0 mm 1 m/s 753 mmHg 81%
    22:00 +28°C° 0 mm 1 m/s 753 mmHg 83%
    23:00 +27°C° 0 mm 1 m/s 753 mmHg 85%

    26 Novembro, Domingo

    Tempo Temperatura Precipitação Vento Pressão Humidade
    00:00 +27°C° 0 mm 1 m/s 752 mmHg 86%
    01:00 +25°C° 0 mm 0 m/s 751 mmHg 88%
    02:00 +24°C° 0 mm 0 m/s 751 mmHg 89%
    03:00 +24°C° 0,3 mm 0 m/s 751 mmHg 91%
    04:00 +24°C° 0,3 mm 0 m/s 751 mmHg 94%
    05:00 +23°C° 0,3 mm 0 m/s 752 mmHg 96%
    06:00 +25°C° 0,2 mm 0 m/s 753 mmHg 91%
    07:00 +26°C° 0,2 mm 0 m/s 753 mmHg 87%
    08:00 +27°C° 0,2 mm 0 m/s 754 mmHg 82%
    09:00 +31°C° 0,7 mm 1 m/s 754 mmHg 71%
    10:00 +33°C° 0,7 mm 1 m/s 754 mmHg 61%
    11:00 +36°C° 0,7 mm 2 m/s 753 mmHg 50%
    12:00 +37°C° 0 mm 2 m/s 752 mmHg 48%
    13:00 +36°C° 0 mm 1 m/s 751 mmHg 46%
    14:00 +36°C° 0 mm 1 m/s 750 mmHg 44%
    15:00 +36°C° 0 mm 1 m/s 750 mmHg 47%
    16:00 +35°C° 0 mm 1 m/s 750 mmHg 49%
    17:00 +35°C° 0 mm 1 m/s 750 mmHg 52%
    18:00 +33°C° 0 mm 1 m/s 750 mmHg 57%
    19:00 +32°C° 0 mm 1 m/s 751 mmHg 62%
    20:00 +30°C° 0 mm 1 m/s 751 mmHg 67%
    21:00 +29°C° 0 mm 1 m/s 751 mmHg 69%
    22:00 +29°C° 0 mm 1 m/s 751 mmHg 71%
    23:00 +28°C° 0 mm 1 m/s 751 mmHg 74%

    27 Novembro, Segunda-feira

    Tempo Temperatura Precipitação Vento Pressão Humidade
    00:00 +28°C° 0 mm 1 m/s 751 mmHg 75%
    01:00 +28°C° 0 mm 1 m/s 750 mmHg 77%
    02:00 +27°C° 0 mm 1 m/s 750 mmHg 79%
    03:00 +27°C° 0 mm 1 m/s 750 mmHg 80%
    04:00 +25°C° 0 mm 0 m/s 751 mmHg 81%
    05:00 +25°C° 0 mm 0 m/s 751 mmHg 82%
    06:00 +28°C° 0,1 mm 1 m/s 752 mmHg 80%
    07:00 +29°C° 0,1 mm 1 m/s 753 mmHg 77%
    08:00 +30°C° 0,1 mm 1 m/s 754 mmHg 74%
    09:00 +31°C° 0,9 mm 1 m/s 754 mmHg 68%
    10:00 +33°C° 0,9 mm 1 m/s 753 mmHg 62%
    11:00 +34°C° 0,9 mm 1 m/s 753 mmHg 56%
    12:00 +35°C° 0 mm 1 m/s 752 mmHg 52%
    13:00 +36°C° 0 mm 1 m/s 751 mmHg 47%
    14:00 +36°C° 0 mm 1 m/s 751 mmHg 42%
    15:00 +36°C° 0 mm 1 m/s 750 mmHg 45%
    16:00 +35°C° 0 mm 1 m/s 750 mmHg 48%
    17:00 +33°C° 0 mm 0 m/s 750 mmHg 51%
    18:00 +31°C° 0 mm 0 m/s 751 mmHg 56%
    19:00 +29°C° 0 mm 0 m/s 751 mmHg 60%
    20:00 +28°C° 0 mm 0 m/s 752 mmHg 64%
    21:00 +27°C° 0 mm 0 m/s 752 mmHg 66%
    22:00 +27°C° 0 mm 0 m/s 752 mmHg 68%
    23:00 +27°C° 0 mm 0 m/s 751 mmHg 70%

    28 Novembro, Terça-feira

    Tempo Temperatura Precipitação Vento Pressão Humidade
    00:00 +26°C° 0 mm 0 m/s 751 mmHg 72%
    01:00 +26°C° 0 mm 0 m/s 751 mmHg 74%
    02:00 +28°C° 0 mm 1 m/s 750 mmHg 75%
    03:00 +25°C° 0 mm 0 m/s 751 mmHg 76%
    04:00 +25°C° 0 mm 0 m/s 751 mmHg 78%
    05:00 +25°C° 0 mm 0 m/s 751 mmHg 79%
    06:00 +26°C° 0 mm 0 m/s 752 mmHg 76%
    07:00 +27°C° 0 mm 0 m/s 753 mmHg 73%
    08:00 +30°C° 0 mm 1 m/s 754 mmHg 70%
    09:00 +32°C° 0,1 mm 1 m/s 754 mmHg 61%
    10:00 +35°C° 0,1 mm 1 m/s 754 mmHg 52%
    11:00 +37°C° 0,1 mm 1 m/s 753 mmHg 43%
    12:00 +37°C° 0 mm 1 m/s 753 mmHg 42%
    13:00 +37°C° 0 mm 1 m/s 752 mmHg 41%
    14:00 +37°C° 0 mm 1 m/s 751 mmHg 40%
    15:00 +36°C° 0 mm 1 m/s 751 mmHg 43%
    16:00 +34°C° 0 mm 0 m/s 751 mmHg 46%
    17:00 +33°C° 0 mm 0 m/s 751 mmHg 48%
    18:00 +32°C° 0 mm 0 m/s 751 mmHg 52%
    19:00 +30°C° 0 mm 0 m/s 752 mmHg 56%
    20:00 +29°C° 0 mm 0 m/s 752 mmHg 60%
    21:00 +28°C° 0 mm 0 m/s 752 mmHg 62%
    22:00 +28°C° 0 mm 0 m/s 752 mmHg 65%
    23:00 +27°C° 0 mm 0 m/s 751 mmHg 67%
    Mostrar mais